Wind_Speed
39 46 45 41 37 33 37 39 39 42 46 47 49 49 49 50 51 51 53 56 57 58 59 60 62 64 65 64 65 67 68 69 77 83 80 74 61 57 54 48 46 47 48
44 43 45 49 44 40 42 44 43 45 47 49 50 51 54 55 56 57 59 60 62 63 64 65 66 68 68 66 68 69 69 71 79 83 80 75 63 54 38 34 37 36 35
48 46 46 50 54 50 49 50 52 50 51 51 52 53 55 57 60 63 64 65 66 66 66 67 67 68 68 67 69 72 71 73 81 83 81 74 59 44 33 33 29 24 23
48 48 50 54 55 56 54 56 64 59 57 57 55 57 58 59 61 63 64 65 65 66 65 67 69 68 68 69 70 72 73 76 81 83 82 69 56 37 31 28 22 24 24
52 54 50 52 47 51 56 58 67 67 63 63 60 60 62 62 62 62 63 64 65 66 67 68 67 68 69 70 71 73 74 78 82 83 84 64 50 37 30 29 28 27 31
55 55 57 54 49 54 60 65 67 66 67 66 67 66 66 66 65 66 66 66 68 68 69 70 69 70 71 71 74 74 76 80 81 86 84 60 48 39 31 32 30 32 33
59 58 58 58 61 65 66 67 69 70 72 72 71 70 69 70 69 70 70 68 68 69 70 71 72 73 73 74 77 78 79 81 82 85 74 54 42 41 36 33 35 37 37
63 62 62 63 65 67 67 71 72 73 73 74 74 73 73 74 74 74 74 73 72 71 72 73 74 76 78 78 79 80 82 82 83 81 61 47 40 38 39 37 37 37 39
70 71 70 69 70 71 71 72 72 73 75 75 75 75 76 77 77 80 80 80 79 77 76 77 77 78 80 81 82 82 83 83 83 70 53 43 43 40 41 43 38 38 39
78 76 75 75 76 74 73 75 74 75 77 78 77 77 78 80 82 84 86 84 84 82 83 84 83 83 82 83 84 83 82 82 73 59 48 42 43 43 45 42 44 43 43
81 80 77 76 78 79 79 78 76 75 78 80 80 81 82 85 87 89 90 90 91 90 89 88 87 85 84 83 84 81 79 75 60 51 45 43 42 44 45 45 43 45 44
82 82 82 82 82 81 81 81 82 80 81 84 86 87 91 92 92 94 96 95 96 96 93 92 91 89 85 83 81 76 72 62 51 47 44 42 43 44 43 47 48 49 50
82 83 83 83 84 85 86 87 89 93 93 93 95 95 96 100 99 101 101 103 98 95 91 92 90 90 87 80 73 68 60 50 45 43 42 40 42 44 47 48 47 51 55
81 83 85 87 90 92 93 94 96 99 101 105 107 107 105 105 103 99 94 89 86 83 82 82 82 81 78 73 67 56 47 43 40 36 34 36 40 42 42 45 50 55 59
88 90 93 96 97 98 100 104 107 109 108 107 105 100 93 88 86 83 78 75 70 68 66 67 66 67 63 58 49 42 39 33 28 27 32 35 35 40 45 52 58 62 63
97 99 102 106 107 104 103 100 98 94 92 89 85 81 77 71 68 65 58 55 53 53 52 53 51 47 43 39 35 33 28 21 22 27 30 34 39 46 52 58 61 54 44
102 102 100 98 93 89 88 84 84 82 75 70 66 63 60 58 56 52 46 42 41 38 42 41 36 31 29 28 25 20 13 15 22 25 32 40 47 55 61 61 49 42 34
95 91 89 87 84 79 73 68 63 62 62 57 52 48 44 41 40 36 32 34 31 31 29 25 23 20 19 15 10 5 12 17 23 31 39 46 55 59 55 48 38 30 22
89 84 77 73 70 65 60 56 52 49 44 41 37 32 30 28 27 26 27 23 21 19 20 21 15 11 8 5 3 9 14 22 29 38 47 53 54 48 44 32 21 14 12
72 68 65 60 56 54 49 43 39 36 32 29 27 25 21 20 19 20 18 18 17 17 14 13 15 14 8 5 4 11 19 27 35 44 49 46 42 33 23 17 10 6 7
60 57 54 48 44 39 34 31 27 25 24 21 18 16 12 9 9 11 10 6 7 13 23 24 20 15 9 3 9 17 24 32 40 41 37 33 25 20 17 11 5 3 9
48 44 38 34 30 26 21 18 18 15 12 10 6 4 5 6 10 13 16 22 29 30 28 25 19 11 5 10 15 24 28 35 32 30 25 19 18 15 14 10 9 12 16
31 28 25 20 16 12 12 13 9 13 16 17 22 24 25 30 36 35 34 32 29 26 23 18 12 11 11 16 22 26 29 25 24 20 17 14 14 18 18 18 19 21 23
19 14 9 6 7 11 9 14 21 27 30 33 34 33 30 29 30 29 29 28 25 20 15 14 14 13 16 21 25 24 20 20 16 15 11 11 17 18 22 22 25 27 31
4 1 6 14 18 21 27 29 29 30 30 30 30 30 28 25 25 24 21 19 17 14 13 12 13 16 20 24 20 16 16 13 13 10 12 16 17 19 25 29 32 35 39
12 21 27 30 28 26 28 29 27 28 27 25 25 23 23 20 18 14 11 10 11 10 8 12 16 21 23 18 12 11 9 10 10 14 20 19 20 27 33 38 41 42 43
Wind_Direction
308 311 315 312 310 304 313 316 312 309 308 305 305 302 299 298 295 296 300 300 300 301 302 303 304 305 306 307 311 313 314 317 318 317 321 320 306 299 294 290 287 284 281
312 311 310 305 303 295 302 314 313 312 310 308 307 304 300 298 295 294 295 295 296 297 299 300 301 303 305 308 311 313 313 316 317 318 322 321 308 303 294 289 288 288 285
309 306 303 307 298 298 294 300 309 306 307 309 308 308 306 304 300 297 296 296 295 297 298 301 303 303 305 308 310 312 313 315 316 320 322 320 307 294 289 289 290 293 300
301 303 301 302 304 297 293 287 299 303 301 303 305 306 306 306 305 303 301 297 296 297 299 302 303 304 306 307 310 312 313 314 315 319 322 317 303 283 284 284 280 281 283
297 297 297 296 291 289 287 290 296 299 300 299 299 301 302 302 302 304 301 299 297 298 300 301 303 304 304 305 308 310 312 312 313 319 321 313 298 278 280 275 276 282 288
295 294 295 292 288 286 283 288 291 295 296 296 296 296 298 299 301 303 303 301 299 299 301 301 301 302 303 305 307 309 309 311 317 318 319 308 292 274 276 268 271 278 282
294 291 292 293 289 288 289 289 290 292 291 291 293 293 294 295 298 300 302 301 299 298 298 299 300 300 301 303 305 306 309 312 316 315 317 306 286 277 277 273 270 274 282
298 297 294 292 292 291 289 286 286 286 287 289 289 291 291 294 296 297 300 300 298 297 297 297 297 297 300 302 304 306 308 311 314 314 309 296 282 274 275 273 271 275 285
297 297 296 292 290 290 288 287 288 287 287 288 288 288 289 292 294 297 298 298 297 297 297 296 296 297 298 301 303 305 307 310 311 308 301 285 279 273 280 285 285 289 290
298 297 296 294 292 290 288 288 288 286 286 287 288 288 289 291 293 294 295 296 295 296 296 295 295 296 297 299 300 304 306 306 308 301 294 277 279 276 280 284 291 299 291
297 295 294 291 291 291 292 290 289 288 288 289 289 290 291 291 292 292 292 293 292 293 292 292 291 292 294 297 299 302 302 304 301 294 288 273 277 279 284 289 294 299 297
297 296 296 295 294 294 293 292 292 291 289 289 289 289 290 289 289 289 289 289 289 291 292 292 293 293 294 295 298 298 300 299 293 290 282 274 278 285 288 295 298 302 305
294 295 295 294 294 293 293 293 293 293 292 291 291 290 288 288 288 287 288 288 289 288 288 288 289 290 292 294 295 296 295 291 286 286 279 280 288 293 295 298 300 304 303
292 291 292 293 293 293 293 293 292 292 292 290 289 288 288 288 288 287 286 286 285 283 282 281 282 284 287 290 290 291 288 284 284 283 285 292 295 296 300 303 304 305 306
295 295 295 294 292 293 294 293 292 291 290 289 289 288 288 288 287 286 285 284 282 280 278 276 276 279 282 285 285 283 281 282 287 291 296 298 300 305 306 307 307 306 305
296 295 293 293 293 293 291 291 289 287 287 288 290 291 289 286 283 281 281 278 274 271 267 265 268 272 276 277 276 277 280 287 294 301 301 304 306 306 308 308 306 305 302
293 293 294 295 295 293 292 291 291 292 292 291 288 286 287 284 283 282 279 274 271 264 256 259 260 263 266 265 272 277 285 307 308 305 309 309 309 310 310 309 307 307 298
299 298 298 296 295 294 296 296 296 293 292 294 294 294 293 289 285 283 271 264 259 253 255 248 240 244 249 258 258 302 321 312 311 310 312 311 310 309 310 309 306 298 290
301 299 298 297 299 302 301 299 298 300 299 297 297 295 291 288 285 275 267 265 253 243 232 224 215 210 200 183 347 328 313 310 311 312 311 311 312 312 309 305 295 275 252
299 299 299 303 305 302 301 303 302 302 303 303 303 298 296 292 273 261 253 243 236 230 213 167 149 141 124 77 349 319 317 315 312 312 313 314 313 311 317 323 311 269 219
301 302 302 304 301 303 305 306 308 313 312 315 318 311 297 294 285 267 257 238 195 146 132 130 124 107 95 44 336 328 317 317 315 315 316 316 322 337 342 351 359 142 153
299 299 300 300 306 310 313 321 328 335 341 348 358 27 66 76 94 96 103 112 117 119 117 109 104 103 65 360 334 321 319 320 320 323 327 339 351 7 23 46 85 125 131
294 295 301 306 310 318 345 357 46 66 72 84 85 85 100 108 108 107 107 109 109 104 99 99 90 51 10 335 329 328 325 325 328 337 354 10 33 45 59 77 101 116 124
305 303 309 325 36 37 71 95 100 99 93 92 94 94 93 94 101 106 106 103 102 98 86 67 42 8 347 338 331 332 332 334 347 7 30 55 59 70 81 93 107 113 118
328 78 97 82 88 101 99 97 92 90 89 92 88 88 87 87 90 95 99 100 95 80 56 28 2 347 339 334 335 338 338 353 19 46 80 76 81 97 103 106 111 115 117
110 99 95 94 95 96 95 91 92 89 88 87 86 89 91 95 98 96 91 83 66 48 13 346 339 336 335 336 344 340 1 32 59 89 87 88 98 110 112 114 116 118 120
Height
10746 10741 10737 10733 10728 10724 10720 10715 10710 10704 10699 10695 10691 10686 10682 10677 10673 10668 10663 10658 10653 10647 10642 10637 10631 10624 10618 10611 10603 10595 10585 10576 10565 10551 10539 10527 10516 10509 10503 10499 10496 10494 10492
10737 10734 10727 10719 10721 10714 10709 10704 10700 10694 10689 10683 10678 10673 10668 10663 10659 10654 10650 10644 10638 10632 10626 10621 10616 10609 10601 10594 10587 10578 10570 10560 10550 10537 10524 10512 10500 10494 10490 10487 10485 10482 10481
10728 10724 10718 10716 10708 10704 10699 10692 10688 10684 10679 10673 10666 10661 10655 10650 10644 10639 10634 10628 10623 10618 10612 10604 10598 10592 10585 10578 10570 10563 10553 10545 10534 10521 10509 10497 10489 10484 10481 10478 10477 10474 10472
10721 10715 10711 10706 10697 10692 10687 10682 10676 10672 10667 10661 10654 10648 10642 10636 10631 10624 10618 10613 10608 10602 10596 10590 10582 10576 10568 10561 10554 10546 10536 10528 10518 10507 10496 10485 10477 10473 10472 10470 10469 10467 10464
10707 10703 10700 10695 10689 10680 10673 10668 10662 10657 10651 10646 10640 10634 10628 10623 10617 10611 10604 10597 10591 10586 10581 10575 10568 10561 10554 10547 10540 10531 10522 10513 10503 10493 10482 10472 10465 10463 10462 10462 10462 10460 10457
10695 10687 10682 10677 10672 10668 10662 10655 10649 10642 10635 10630 10624 10618 10612 10607 10601 10595 10589 10583 10576 10570 10565 10559 10553 10545 10540 10531 10524 10516 10508 10499 10488 10477 10467 10458 10453 10453 10453 10452 10451 10450 10448
10679 10673 10666 10659 10653 10648 10642 10636 10631 10626 10621 10614 10608 10602 10596 10589 10584 10578 10573 10566 10561 10555 10550 10544 10537 10530 10523 10517 10509 10500 10492 10482 10473 10462 10453 10445 10441 10441 10443 10442 10441 10440 10438
10660 10656 10650 10642 10635 10629 10624 10618 10613 10608 10602 10595 10589 10583 10576 10571 10566 10559 10553 10549 10544 10538 10533 10528 10521 10514 10507 10500 10493 10484 10475 10467 10459 10448 10439 10434 10432 10431 10431 10431 10430 10429 10428
10642 10636 10630 10624 10617 10612 10604 10597 10593 10586 10579 10574 10569 10564 10559 10550 10544 10536 10532 10526 10522 10519 10514 10508 10503 10497 10489 10482 10475 10468 10459 10451 10442 10434 10427 10422 10420 10420 10419 10419 10420 10419 10415
10619 10614 10607 10599 10593 10590 10584 10576 10573 10565 10557 10551 10546 10542 10536 10530 10523 10516 10508 10504 10498 10496 10492 10486 10481 10476 10471 10464 10456 10450 10442 10434 10427 10419 10414 10411 10411 10410 10409 10408 10408 10406 10402
10592 10587 10584 10577 10569 10563 10558 10551 10548 10543 10534 10528 10523 10518 10512 10506 10500 10493 10488 10484 10478 10475 10472 10466 10460 10455 10452 10445 10438 10433 10424 10417 10411 10406 10402 10400 10401 10399 10399 10398 10396 10393 10390
10566 10558 10552 10548 10543 10537 10531 10524 10518 10516 10512 10504 10498 10495 10486 10481 10477 10469 10463 10461 10455 10450 10446 10441 10435 10432 10429 10425 10421 10414 10408 10402 10397 10393 10390 10390 10390 10389 10389 10386 10383 10379 10374
10546 10540 10532 10523 10516 10510 10506 10501 10493 10482 10478 10476 10468 10464 10459 10448 10446 10440 10437 10430 10427 10425 10422 10417 10413 10409 10407 10405 10402 10398 10393 10389 10385 10382 10380 10380 10380 10379 10378 10375 10371 10366 10360
10528 10519 10510 10502 10492 10483 10479 10472 10465 10456 10448 10438 10429 10423 10422 10416 10408 10404 10402 10401 10399 10398 10396 10394 10392 10390 10389 10388 10385 10383 10380 10377 10374 10374 10374 10372 10371 10368 10366 10362 10357 10351 10344
10499 10491 10482 10472 10464 10459 10452 10441 10429 10419 10409 10400 10391 10386 10385 10382 10376 10370 10370 10367 10369 10369 10370 10370 10371 10372 10372 10372 10370 10370 10369 10368 10367 10366 10366 10365 10362 10357 10352 10347 10340 10334 10327
10471 10462 10451 10440 10434 10430 10419 10408 10390 10385 10377 10369 10364 10358 10352 10349 10344 10340 10342 10342 10343 10345 10348 10348 10352 10355 10358 10359 10358 10359 10360 10360 10360 10360 10359 10355 10351 10345 10339 10332 10324 10317 10311
10444 10433 10421 10409 10400 10392 10382 10376 10365 10353 10349 10342 10335 10331 10329 10325 10322 10320 10323 10323 10324 10327 10328 10332 10337 10342 10346 10347 10350 10353 10354 10354 10355 10354 10350 10345 10337 10330 10321 10313 10306 10300 10295
10407 10398 10389 10379 10370 10361 10355 10347 10342 10333 10324 10321 10318 10314 10312 10309 10306 10307 10309 10308 10309 10313 10317 10322 10327 10332 10337 10342 10347 10348 10349 10351 10349 10345 10340 10333 10324 10315 10305 10297 10292 10289 10286
10380 10370 10361 10354 10347 10341 10333 10326 10322 10318 10313 10308 10304 10301 10298 10297 10296 10296 10296 10299 10301 10304 10309 10314 10321 10328 10334 10340 10342 10345 10346 10344 10340 10334 10328 10320 10310 10301 10294 10287 10283 10280 10278
10356 10349 10342 10336 10332 10324 10318 10314 10311 10307 10302 10298 10295 10293 10291 10289 10290 10289 10291 10293 10296 10301 10307 10313 10320 10327 10333 10338 10341 10343 10341 10336 10332 10326 10317 10308 10301 10293 10286 10279 10275 10273 10272
10339 10334 10328 10325 10318 10314 10310 10307 10303 10300 10296 10293 10290 10289 10288 10288 10288 10289 10290 10294 10299 10303 10309 10315 10322 10329 10335 10339 10340 10338 10335 10331 10326 10318 10311 10303 10295 10287 10281 10275 10272 10271 10272
10328 10322 10319 10315 10312 10309 10306 10303 10301 10297 10294 10292 10291 10290 10288 10289 10290 10292 10295 10300 10305 10310 10315 10319 10326 10332 10336 10336 10336 10334 10330 10325 10318 10313 10306 10298 10291 10285 10279 10275 10273 10274 10276
10318 10314 10312 10310 10308 10306 10305 10303 10301 10297 10296 10295 10294 10294 10294 10295 10297 10300 10303 10307 10313 10318 10322 10327 10331 10333 10334 10334 10332 10328 10323 10319 10314 10309 10302 10297 10292 10287 10282 10279 10278 10279 10281
10313 10311 10309 10308 10307 10306 10306 10305 10305 10301 10301 10301 10302 10304 10307 10308 10307 10309 10311 10315 10320 10325 10328 10330 10331 10333 10332 10331 10328 10323 10320 10316 10312 10307 10303 10299 10294 10292 10290 10288 10287 10287 10290
10311 10310 10309 10308 10309 10312 10310 10310 10311 10310 10311 10311 10311 10312 10314 10317 10319 10320 10322 10324 10326 10329 10330 10331 10333 10333 10332 10329 10325 10321 10319 10316 10312 10310 10307 10303 10301 10299 10298 10298 10299 10299 10302
10314 10311 10311 10314 10317 10318 10318 10317 10318 10318 10318 10319 10321 10322 10323 10326 10327 10327 10328 10329 10329 10330 10332 10333 10332 10331 10329 10326 10323 10322 10319 10317 10315 10313 10311 10311 10310 10308 10307 10307 10310 10312 10314